{"data":{"norad_id":62963,"epoch":"2026-05-24T23:18:07.704000Z","epoch_age_seconds":70779,"freshness":"FRESH","line1":"1 62963U 25029R   26144.97092250  .00018063  00000+0  54447-3 0  9999","line2":"2 62963  53.1592 235.5092 0001359  87.2961 272.8197 15.34398273 73034","mean_motion":15.34398273,"eccentricity":0.0001359,"inclination_deg":53.1592,"raan_deg":235.5092,"arg_perigee_deg":87.2961,"mean_anomaly_deg":272.8197,"bstar":0.00054447,"rev_number":7303,"period_min":93.847863709111,"perigee_km":461.77870233365,"apogee_km":463.63804410609,"semimajor_km":6840.8453732199,"source":"CELESTRAK","updated_at":"2026-05-25T13:38:19.827615Z"}}